Jamul (75, 524) Station Data

Red Flag Warning: No
Fire Weather Zone: 250
SDGE Region: Eastern
Lat/Lon: 32.714/-116.869

Observations

Time Wind Speed/Gust Temp(F) RH Fuel Moist Fuel Temp(F) Dewpt(F) Tmax(F) Tmin(F) Accum Precip 10-min Precip SL Press(mb)
6/22 4:50am 7 1 G 1 59° 93% - - 57° 60.5° 58.1° - - -
6/22 4:40am 15 2 G 3 59° 93% - - 57° 60.5° 58.1° - - -
6/22 4:30am 17 2 G 3 59° 93% - - 57° 60.5° 58.1° - - -
6/22 4:20am 19 2 G 3 59° 93% - - 57° 60.5° 58.1° - - -
6/22 4:10am 355 2 G 4 59° 93% - - 57° 60.5° 58.1° - - -
6/22 4:00am 336 2 G 4 59° 92% - - 57° 60.5° 58.1° - - -
6/22 3:50am 331 2 G 4 59° 92% - - 57° 60.5° 58.1° - - -
6/22 3:40am 339 3 G 5 59° 92% - - 57° 60.5° 58.1° - - -
6/22 3:30am 320 2 G 4 59° 92% - - 57° 60.5° 58.1° - - -
6/22 3:20am 336 2 G 4 59° 92% - - 57° 60.5° 58.1° - - -
6/22 3:10am 308 2 G 4 59° 92% - - 56° 60.5° 58.1° - - -
6/22 3:00am 346 2 G 4 59° 92% - - 56° 60.5° 58.1° - - -
6/22 2:50am 350 2 G 3 59° 92% - - 56° 60.5° 58.1° - - -
6/22 2:40am 343 2 G 4 59° 92% - - 56° 60.5° 58.1° - - -
6/22 2:30am 349 2 G 3 59° 92% - - 56° 60.5° 58.1° - - -
6/22 2:20am 347 2 G 3 59° 92% - - 56° 60.5° 58.1° - - -
6/22 2:10am 20 1 G 2 59° 92% - - 56° 60.5° 58.1° - - -
6/22 2:00am 6 1 G 2 58° 92% - - 56° 60.5° 58.1° - - -
6/22 1:50am 345 2 G 4 58° 92% - - 56° 60.5° 58.2° - - -
6/22 1:40am 5 1 G 3 59° 92% - - 56° 60.5° 58.4° - - -
6/22 1:30am 351 2 G 2 59° 92% - - 56° 60.5° 58.4° - - -
6/22 1:20am 301 1 G 2 59° 91% - - 57° 60.5° 58.7° - - -
6/22 1:10am 303 2 G 3 59° 91% - - 56° 60.5° 58.7° - - -
6/22 1:00am 319 2 G 3 59° 91% - - 56° 60.5° 58.7° - - -
6/22 12:50am 323 2 G 4 59° 91% - - 56° 60.5° 59° - - -
6/22 12:40am 272 2 G 5 59° 90% - - 57° 60.5° 59° - - -
6/22 12:30am 267 1 G 2 59° 90% - - 56° 60.5° 59° - - -
6/22 12:20am 263 2 G 3 59° 89% - - 56° 60.5° 59° - - -
6/22 12:10am 240 3 G 4 60° 88% - - 56° 60.5° 59.5° - - -
6/22 12:00am 227 2 G 4 61° 87% - - 57° 89.4° 59.2° - - -
6/21 11:50pm 232 1 G 2 61° 87% - - 57° 89.4° 59.2° - - -
6/21 11:40pm 225 1 G 2 61° 86% - - 57° 89.4° 59.2° - - -
6/21 11:30pm 267 0 G 2 61° 85% - - 57° 89.4° 59.2° - - -
6/21 11:20pm 299 1 G 2 61° 85% - - 57° 89.4° 59.2° - - -
6/21 11:10pm 335 2 G 3 62° 84% - - 57° 89.4° 59.2° - - -
6/21 11:00pm 335 2 G 3 62° 83% - - 57° 89.4° 59.2° - - -
6/21 10:50pm 304 1 G 2 63° 82% - - 57° 89.4° 59.2° - - -
6/21 10:40pm 312 2 G 2 63° 82% - - 57° 89.4° 59.2° - - -
6/21 10:30pm 202 1 G 2 63° 82% - - 58° 89.4° 59.2° - - -
6/21 10:20pm 20 1 G 2 63° 82% - - 57° 89.4° 59.2° - - -
6/21 10:10pm 353 2 G 3 63° 81% - - 57° 89.4° 59.2° - - -
6/21 10:00pm 349 2 G 3 64° 79% - - 57° 89.4° 59.2° - - -
6/21 9:50pm 325 2 G 4 65° 79% - - 58° 89.4° 59.2° - - -
6/21 9:40pm 352 2 G 4 65° 78% - - 58° 89.4° 59.2° - - -
6/21 9:30pm 351 2 G 4 66° 76% - - 58° 89.4° 59.2° - - -
6/21 9:20pm 332 2 G 3 66° 75% - - 58° 89.4° 59.2° - - -
6/21 9:10pm 335 2 G 3 66° 74% - - 58° 89.4° 59.2° - - -
6/21 9:00pm 350 2 G 3 67° 73% - - 58° 89.4° 59.2° - - -
6/21 8:50pm 331 3 G 5 67° 73% - - 58° 89.4° 59.2° - - -
6/21 8:40pm 326 3 G 5 68° 71% - - 58° 89.4° 59.2° - - -
6/21 8:30pm 316 3 G 5 69° 69% - - 59° 89.4° 59.2° - - -
6/21 8:20pm 315 4 G 6 70° 68% - - 59° 89.4° 59.2° - - -
6/21 8:10pm 318 4 G 6 70° 66% - - 59° 89.4° 59.2° - - -
6/21 8:00pm 314 4 G 6 71° 65% - - 59° 89.4° 59.2° - - -
6/21 7:50pm 313 4 G 7 72° 64% - - 59° 89.4° 59.2° - - -
6/21 7:40pm 306 5 G 7 73° 62% - - 59° 89.4° 59.2° - - -
6/21 7:30pm 305 5 G 8 74° 60% - - 59° 89.4° 59.2° - - -
6/21 7:20pm 314 5 G 7 75° 58% - - 59° 89.4° 59.2° - - -
6/21 7:10pm 311 5 G 8 76° 56% - - 59° 89.4° 59.2° - - -
6/21 7:00pm 312 5 G 7 77° 55% - - 59° 89.4° 59.2° - - -
6/21 6:50pm 306 6 G 8 77° 55% - - 59° 89.4° 59.2° - - -
6/21 6:40pm 311 6 G 9 77° 54% - - 59° 89.4° 59.2° - - -
6/21 6:30pm 307 6 G 10 78° 53% - - 59° 89.4° 59.2° - - -
6/21 6:20pm 304 6 G 8 77° 54% - - 59° 89.4° 59.2° - - -
6/21 6:10pm 307 7 G 10 77° 53% - - 59° 89.4° 59.2° - - -
6/21 6:00pm 308 6 G 11 78° 52% - - 59° 89.4° 59.2° - - -
6/21 5:50pm 307 7 G 11 78° 51% - - 59° 89.4° 59.2° - - -
6/21 5:40pm 307 7 G 11 80° 49% - - 59° 89.4° 59.2° - - -
6/21 5:30pm 305 7 G 12 81° 48% - - 59° 89.4° 59.2° - - -
6/21 5:20pm 305 7 G 9 81° 46% - - 59° 89.4° 59.2° - - -
6/21 5:10pm 316 6 G 10 82° 46% - - 59° 89.4° 59.2° - - -
6/21 5:00pm 298 7 G 12 82° 46% - - 59° 89.4° 59.2° - - -
6/21 4:50pm 303 7 G 12 82° 45% - - 59° 89.4° 59.2° - - -
6/21 4:40pm 304 7 G 10 82° 44% - - 58° 89.4° 59.2° - - -
6/21 4:30pm 305 7 G 10 82° 44% - - 59° 89.4° 59.2° - - -
6/21 4:20pm 300 7 G 11 82° 45% - - 59° 89.4° 59.2° - - -
6/21 4:10pm 306 8 G 12 82° 45% - - 59° 89.4° 59.2° - - -
6/21 4:00pm 299 7 G 12 83° 44% - - 59° 89.4° 59.2° - - -
6/21 3:50pm 311 8 G 11 83° 44% - - 59° 89.4° 59.2° - - -
6/21 3:40pm 309 8 G 12 83° 44% - - 59° 89.4° 59.2° - - -
6/21 3:30pm 310 7 G 10 84° 43% - - 59° 89.4° 59.2° - - -
6/21 3:20pm 313 8 G 12 83° 44% - - 59° 89.4° 59.2° - - -
6/21 3:10pm 308 7 G 11 84° 43% - - 59° 89.4° 59.2° - - -
6/21 3:00pm 316 7 G 10 84° 43% - - 59° 89.4° 59.2° - - -
6/21 2:50pm 308 7 G 11 84° 43% - - 59° 89.4° 59.2° - - -
6/21 2:40pm 306 7 G 11 84° 43% - - 59° 89.4° 59.2° - - -
6/21 2:30pm 309 7 G 12 84° 44% - - 60° 89.4° 59.2° - - -
6/21 2:20pm 308 8 G 11 84° 44% - - 60° 89.4° 59.2° - - -
6/21 2:10pm 310 8 G 11 84° 44% - - 60° 89.4° 59.2° - - -
6/21 2:00pm 311 9 G 13 84° 44% - - 60° 89.4° 59.2° - - -
6/21 1:50pm 311 9 G 12 84° 44% - - 60° 89.4° 59.2° - - -
6/21 1:40pm 309 8 G 12 85° 42% - - 60° 89.4° 59.2° - - -
6/21 1:30pm 310 9 G 13 86° 41% - - 60° 89.4° 59.2° - - -
6/21 1:20pm 312 8 G 11 87° 39% - - 60° 89.4° 59.2° - - -
6/21 1:10pm 310 6 G 11 88° 39% - - 60° 89.4° 59.2° - - -
6/21 1:00pm 309 6 G 11 88° 38% - - 60° 89.4° 59.2° - - -
6/21 12:50pm 305 6 G 9 88° 39% - - 60° 89.4° 59.2° - - -
6/21 12:40pm 311 6 G 11 87° 39% - - 60° 87.9° 59.2° - - -
6/21 12:30pm 310 7 G 10 87° 39% - - 59° 87.9° 59.2° - - -
6/21 12:20pm 302 6 G 11 87° 40% - - 59° 87.7° 59.2° - - -
6/21 12:10pm 311 7 G 12 86° 40% - - 59° 87° 59.2° - - -
6/21 12:00pm 311 7 G 10 86° 40% - - 59° 87° 59.2° - - -
6/21 11:50am 316 7 G 10 86° 39% - - 58° 86.7° 59.2° - - -
6/21 11:40am 310 7 G 11 86° 39% - - 58° 86.7° 59.2° - - -
6/21 11:30am 303 6 G 11 86° 40% - - 58° 86.2° 59.2° - - -
6/21 11:20am 297 7 G 10 86° 40% - - 59° 86° 59.2° - - -
6/21 11:10am 308 7 G 10 85° 41% - - 59° 85.5° 59.2° - - -
6/21 11:00am 309 6 G 9 84° 43% - - 59° 84.7° 59.2° - - -
6/21 10:50am 310 6 G 9 84° 44% - - 59° 84.2° 59.2° - - -
6/21 10:40am 316 6 G 9 83° 45% - - 59° 83.6° 59.2° - - -
6/21 10:30am 313 7 G 9 82° 45% - - 59° 82.8° 59.2° - - -
6/21 10:20am 296 5 G 9 82° 46% - - 59° 82.5° 59.2° - - -
6/21 10:10am 313 6 G 9 80° 48% - - 59° 81.4° 59.2° - - -
6/21 10:00am 305 6 G 9 79° 51% - - 59° 81.4° 59.2° - - -
6/21 9:50am 304 7 G 9 78° 53% - - 60° 81.4° 59.2° - - -
6/21 9:40am 315 6 G 9 78° 55% - - 60° 81.4° 59.2° - - -
6/21 9:30am 312 6 G 7 78° 55% - - 60° 81.4° 59.2° - - -
6/21 9:20am 315 5 G 7 77° 57% - - 60° 81.4° 59.2° - - -
6/21 9:10am 314 5 G 8 78° 55% - - 60° 81.4° 59.2° - - -
6/21 9:00am 263 1 G 6 81° 46% - - 58° 81.4° 59.2° - - -
6/21 8:50am 201 1 G 3 79° 49% - - 58° 80° 59.2° - - -
6/21 8:40am 181 2 G 3 77° 54% - - 59° 77.9° 59.2° - - -
6/21 8:30am 262 1 G 2 76° 56% - - 59° 76.5° 59.2° - - -
6/21 8:20am 300 0 G 2 74° 61% - - 59° 75.6° 59.2° - - -
6/21 8:10am 326 1 G 3 72° 65% - - 59° 72.4° 59.2° - - -
6/21 8:00am 319 1 G 2 70° 70% - - 59° 70.6° 59.2° - - -
6/21 7:50am 331 2 G 3 68° 73% - - 59° 68.9° 59.2° - - -
6/21 7:40am 320 2 G 3 67° 76% - - 59° 67.5° 59.2° - - -
6/21 7:30am 326 2 G 3 66° 79% - - 59° 66.2° 59.2° - - -
6/21 7:20am 328 3 G 4 64° 82% - - 59° 65.1° 59.2° - - -
6/21 7:10am 318 2 G 3 63° 84% - - 58° 64.4° 59.2° - - -
6/21 7:00am 333 2 G 3 62° 85% - - 57° 64.4° 59.2° - - -
6/21 6:50am 329 3 G 4 61° 85% - - 57° 64.4° 59.2° - - -
6/21 6:40am 327 2 G 3 61° 86% - - 57° 64.4° 59.2° - - -
6/21 6:30am 328 0 G 2 60° 87% - - 56° 64.4° 59.2° - - -
6/21 6:20am 0 0 G 0 60° 87% - - 56° 64.4° 59.2° - - -
6/21 6:10am 0 0 G 0 60° 87% - - 56° 64.4° 59.2° - - -
6/21 6:00am 0 0 G 0 60° 87% - - 56° 64.4° 59.5° - - -
6/21 5:50am 90 1 G 1 60° 87% - - 57° 64.4° 60° - - -
6/21 5:40am 0 0 G 0 61° 87% - - 57° 64.4° 60.1° - - -
6/21 5:30am 342 0 G 1 61° 87% - - 57° 64.4° 60.6° - - -
6/21 5:20am 313 1 G 3 61° 87% - - 57° 64.4° 60.6° - - -
6/21 5:10am 315 2 G 2 61° 87% - - 57° 64.4° 60.6° - - -
6/21 5:00am 331 1 G 2 61° 87% - - 57° 64.4° 60.6° - - -
6/21 4:50am 334 0 G 2 61° 87% - - 57° 64.4° 60.6° - - -
6/21 4:40am 335 1 G 2 61° 86% - - 57° 64.4° 60.7° - - -
6/21 4:30am 348 1 G 3 61° 86% - - 57° 64.4° 60.8° - - -
6/21 4:20am 340 2 G 3 61° 85% - - 57° 64.4° 61° - - -
6/21 4:10am 329 2 G 3 62° 85% - - 57° 64.4° 61.5° - - -
6/21 4:00am 331 0 G 2 62° 85% - - 57° 64.4° 61.5° - - -
6/21 3:50am 334 0 G 1 62° 85% - - 57° 64.4° 61.6° - - -
6/21 3:40am 328 0 G 1 62° 85% - - 57° 64.4° 61.7° - - -
6/21 3:30am 0 0 G 0 62° 85% - - 57° 64.4° 61.7° - - -
6/21 3:20am 324 1 G 2 62° 85% - - 57° 64.4° 61.8° - - -
6/21 3:10am 342 1 G 2 62° 84% - - 57° 64.4° 61.8° - - -
6/21 3:00am 348 0 G 1 62° 84% - - 57° 64.4° 61.8° - - -
6/21 2:50am 349 0 G 1 62° 84% - - 58° 64.4° 62.1° - - -
6/21 2:40am 345 1 G 2 62° 84% - - 58° 64.4° 62.2° - - -
6/21 2:30am 315 1 G 2 63° 83% - - 57° 64.4° 62.3° - - -
6/21 2:20am 326 2 G 2 63° 83% - - 57° 64.4° 62.5° - - -
6/21 2:10am 341 2 G 3 63° 81% - - 57° 64.4° 62.6° - - -
6/21 2:00am 329 1 G 3 63° 82% - - 57° 64.4° 62.7° - - -
6/21 1:50am 0 0 G 0 63° 82% - - 57° 64.4° 62.7° - - -
6/21 1:40am 0 0 G 0 63° 83% - - 58° 64.4° 62.8° - - -
6/21 1:30am 50 0 G 1 63° 84% - - 58° 64.4° 62.8° - - -
6/21 1:20am 107 0 G 1 63° 84% - - 58° 64.4° 62.8° - - -
6/21 1:10am 158 0 G 2 63° 83% - - 58° 64.4° 62.8° - - -
6/21 1:00am 149 2 G 3 63° 82% - - 58° 64.4° 63.1° - - -
6/21 12:50am 120 2 G 2 64° 81% - - 58° 64.4° 63.4° - - -
6/21 12:40am 98 1 G 1 64° 82% - - 58° 64.4° 63.4° - - -
6/21 12:30am 96 1 G 2 64° 82% - - 58° 64.3° 63.4° - - -
6/21 12:20am 313 0 G 1 64° 82% - - 58° 63.9° 63.4° - - -
6/21 12:10am 328 1 G 2 64° 82% - - 58° 63.9° 63.5° - - -
6/21 12:00am 331 2 G 3 64° 82% - - 58° 93.9° 63.6° - - -
6/20 11:50pm 319 3 G 5 64° 80% - - 58° 93.9° 63.7° - - -
6/20 11:40pm 325 3 G 5 64° 79% - - 58° 93.9° 63.7° - - -
6/20 11:30pm 333 3 G 4 65° 77% - - 58° 93.9° 63.7° - - -
6/20 11:20pm 340 2 G 3 66° 76% - - 58° 93.9° 63.7° - - -
6/20 11:10pm 323 2 G 3 66° 76% - - 59° 93.9° 63.7° - - -
6/20 11:00pm 0 0 G 0 66° 76% - - 58° 93.9° 63.7° - - -
6/20 10:50pm 0 0 G 0 66° 76% - - 58° 93.9° 63.7° - - -
6/20 10:40pm 0 0 G 0 67° 76% - - 59° 93.9° 63.7° - - -
6/20 10:30pm 8 0 G 1 67° 75% - - 59° 93.9° 63.7° - - -
6/20 10:20pm 348 0 G 1 67° 74% - - 59° 93.9° 63.7° - - -
6/20 10:10pm 322 2 G 3 68° 73% - - 59° 93.9° 63.7° - - -
6/20 10:00pm 324 2 G 4 68° 72% - - 59° 93.9° 63.7° - - -
6/20 9:50pm 317 3 G 4 70° 69% - - 59° 93.9° 63.7° - - -
6/20 9:40pm 319 2 G 3 70° 67% - - 59° 93.9° 63.7° - - -
6/20 9:30pm 296 2 G 3 71° 66% - - 59° 93.9° 63.7° - - -
6/20 9:20pm 320 2 G 3 72° 65% - - 59° 93.9° 63.7° - - -
6/20 9:10pm 322 2 G 4 72° 63% - - 59° 93.9° 63.7° - - -
6/20 9:00pm 337 3 G 4 74° 59% - - 59° 93.9° 63.7° - - -
6/20 8:50pm 337 1 G 3 75° 57% - - 59° 93.9° 63.7° - - -
6/20 8:40pm 104 0 G 2 76° 57% - - 59° 93.9° 63.7° - - -
6/20 8:30pm 211 1 G 2 77° 56% - - 60° 93.9° 63.7° - - -
6/20 8:20pm 70 1 G 2 78° 49% - - 57° 93.9° 63.7° - - -
6/20 8:10pm 303 1 G 3 80° 45% - - 57° 93.9° 63.7° - - -
6/20 8:00pm 312 3 G 5 81° 42% - - 56° 93.9° 63.7° - - -
6/20 7:50pm 309 5 G 7 82° 40% - - 55° 93.9° 63.7° - - -
6/20 7:40pm 316 5 G 8 83° 38% - - 54° 93.9° 63.7° - - -
6/20 7:30pm 310 7 G 8 83° 37% - - 54° 93.9° 63.7° - - -
6/20 7:20pm 314 6 G 8 84° 36% - - 54° 93.9° 63.7° - - -
6/20 7:10pm 315 6 G 8 84° 36% - - 54° 93.9° 63.7° - - -
6/20 7:00pm 308 6 G 9 85° 35% - - 54° 93.9° 63.7° - - -
6/20 6:50pm 303 6 G 8 85° 35% - - 55° 93.9° 63.7° - - -
6/20 6:40pm 304 5 G 8 85° 35% - - 55° 93.9° 63.7° - - -
6/20 6:30pm 317 5 G 9 85° 36% - - 55° 93.9° 63.7° - - -
6/20 6:20pm 312 7 G 11 86° 36% - - 55° 93.9° 63.7° - - -
6/20 6:10pm 307 6 G 11 86° 36% - - 55° 93.9° 63.7° - - -
6/20 6:00pm 317 8 G 11 86° 36% - - 56° 93.9° 63.7° - - -